Weather History for EGPF - January, 2014

Change the Weather History Date:

Saturday, January 25, 2014

  Actual Average Record
Temperature  
Mean Temperature 42 °F -  
Max Temperature 48 °F 44 °F 51 °F (2008)
Min Temperature 37 °F 32 °F 24 °F (1997)
Degree Days  
Heating Degree Days 22    
Moisture  
Dew Point 39 °F    
Average Humidity 86    
Maximum Humidity 93    
Minimum Humidity 81    
Precipitation  
Precipitation 0.00 in - - ()
Sea Level Pressure  
Sea Level Pressure 29.58 in    
Wind  
Wind Speed 15 mph ()    
Max Wind Speed 26 mph    
Max Gust Speed 39 mph    
Visibility 5.3 miles    
Events Rain , Hail    
Averages and records for this station are not official NWS values.
T = Trace of Precipitation, MM = Missing Value Source: Averaged Metar Reports

Daily Weather History Graph

Daily Weather History Graph

Search for Another Location

Airport or City:

Trip Planner

Search our weather history database for the weather conditions in past years. The results will help you decide how hot, cold, wet, or windy it might be!

Date:

Astronomy

Jan. 25, 2014 Rise Set
Actual Time 8:24 AM GMT 4:36 PM GMT
Civil Twilight 7:42 AM GMT 5:18 PM GMT
Nautical Twilight 6:56 AM GMT 6:04 PM GMT
Astronomical Twilight 6:12 AM GMT 6:48 PM GMT
Moon 2:34 AM GMT (1/25) 11:30 AM GMT (1/25)
Length of Visible Light 9h 36m
Length of Day
8h 11m
Last Quarter, 36% of the Moon is Illuminated
Jan 25
Last Quarter
Jan 30
New
Feb 6
First Quarter
Feb 14
Full
Feb 22
Last Quarter

Hourly Weather History & Observations

Time (GMT) Temp. Windchill Dew Point Humidity Pressure Visibility Wind Dir Wind Speed Gust Speed Precip Events Conditions
12:20 AM 46.4 °F 39.0 °F 42.8 °F 87% 29.59 in 5.6 mi WSW 19.6 mph - N/A   Mostly Cloudy
12:50 AM 46.4 °F 39.2 °F 42.8 °F 87% 29.62 in 5.6 mi SW 18.4 mph - N/A Rain Light Rain
1:50 AM 46.4 °F 39.8 °F 42.8 °F 87% 29.62 in 5.6 mi SW 16.1 mph - N/A   Mostly Cloudy
2:20 AM 46.4 °F 39.8 °F 42.8 °F 87% 29.62 in 5.0 mi SW 16.1 mph - N/A Rain Light Rain
2:50 AM 48.2 °F - 42.8 °F 82% 29.62 in 5.0 mi SW 15.0 mph - N/A   Overcast
3:20 AM 46.4 °F 38.5 °F 42.8 °F 87% 29.62 in 4.3 mi WSW 21.9 mph - N/A Rain Light Rain
3:50 AM 46.4 °F 40.1 °F 44.6 °F 93% 29.62 in 4.3 mi WSW 15.0 mph - N/A Rain Light Rain
4:20 AM 46.4 °F 40.4 °F 42.8 °F 87% 29.59 in 3.7 mi West 13.8 mph - N/A Rain Light Rain
4:50 AM 46.4 °F 38.7 °F 42.8 °F 87% 29.62 in 5.0 mi SW 20.7 mph - N/A Rain Light Rain
5:20 AM 46.4 °F 39.8 °F 42.8 °F 87% 29.59 in 5.0 mi SW 16.1 mph - N/A   Mostly Cloudy
6:20 AM 46.4 °F 39.8 °F 42.8 °F 87% 29.59 in 5.6 mi SSW 16.1 mph - N/A   Mostly Cloudy
6:50 AM 46.4 °F 39.0 °F 42.8 °F 87% 29.56 in 4.3 mi SW 19.6 mph - N/A   Overcast
7:20 AM 46.4 °F 38.7 °F 42.8 °F 87% 29.53 in 4.3 mi SSW 20.7 mph 34.5 mph N/A   Mostly Cloudy
7:50 AM 46.4 °F 38.1 °F 42.8 °F 87% 29.50 in 4.3 mi SSW 24.2 mph - N/A   Mostly Cloudy
8:20 AM 46.4 °F 37.9 °F 42.8 °F 87% 29.50 in 3.1 mi SSW 25.3 mph 36.8 mph N/A Rain Light Rain Showers
8:50 AM 46.4 °F 37.7 °F 42.8 °F 87% 29.50 in 2.8 mi SSW 26.5 mph 39.1 mph N/A Rain Rain Showers
9:20 AM 46.4 °F 38.1 °F 42.8 °F 87% 29.47 in 2.5 mi SSW 24.2 mph - N/A Rain Light Rain Showers
9:50 AM 46.4 °F 38.7 °F 42.8 °F 87% 29.47 in 3.7 mi SW 20.7 mph - N/A Rain Light Rain Showers
10:20 AM 46.4 °F 40.1 °F 42.8 °F 87% 29.47 in 3.7 mi WSW 15.0 mph - N/A Rain Light Rain Showers
10:50 AM 42.8 °F 34.3 °F 37.4 °F 81% 29.44 in 2.5 mi West 19.6 mph 33.4 mph N/A Rain , Hail Rain Showers
11:20 AM 41.0 °F 32.2 °F 37.4 °F 87% 29.47 in 6.2 mi West 18.4 mph - N/A Rain Light Rain
11:50 AM 41.0 °F 33.1 °F 37.4 °F 87% 29.44 in 6.2 mi WSW 15.0 mph - N/A   Mostly Cloudy
12:20 PM 41.0 °F 34.7 °F 37.4 °F 87% 29.44 in 6.2 mi WSW 10.4 mph - N/A Rain Light Rain
12:50 PM 41.0 °F 33.5 °F 37.4 °F 87% 29.44 in 6.2 mi WSW 13.8 mph - N/A   Scattered Clouds
1:20 PM 41.0 °F 33.9 °F 37.4 °F 87% 29.44 in 6.2 mi WSW 12.7 mph - N/A   Partly Cloudy
1:50 PM 41.0 °F 33.1 °F 37.4 °F 87% 29.44 in 6.2 mi WSW 15.0 mph - N/A   Scattered Clouds
2:20 PM 41.0 °F 33.1 °F 35.6 °F 81% 29.44 in 6.2 mi WSW 15.0 mph - N/A   Scattered Clouds
2:50 PM 41.0 °F 31.9 °F 35.6 °F 81% 29.47 in 6.2 mi West 19.6 mph 31.1 mph N/A Rain Light Rain Showers
3:20 PM 41.0 °F 32.8 °F 35.6 °F 81% 29.50 in 6.2 mi West 16.1 mph - N/A Rain Light Rain Showers
3:50 PM 39.2 °F 33.6 °F 33.8 °F 81% 29.50 in 6.2 mi West 8.1 mph - N/A   Scattered Clouds
4:20 PM 39.2 °F 31.2 °F 35.6 °F 87% 29.56 in 6.2 mi WSW 13.8 mph - N/A   Scattered Clouds
4:50 PM 41.0 °F 31.9 °F 37.4 °F 87% 29.59 in 6.2 mi West 19.6 mph - N/A Rain Light Rain
5:20 PM 39.2 °F 32.0 °F 35.6 °F 87% 29.59 in 6.2 mi West 11.5 mph - N/A Rain Light Rain Showers
5:50 PM 39.2 °F 33.0 °F 35.6 °F 87% 29.62 in 6.2 mi WSW 9.2 mph - N/A   Scattered Clouds
6:20 PM 39.2 °F 30.8 °F 35.6 °F 87% 29.65 in 6.2 mi West 15.0 mph - N/A   Mostly Cloudy
6:50 PM 39.2 °F 35.0 °F 35.6 °F 87% 29.68 in 6.2 mi WNW 5.8 mph - N/A   Mostly Cloudy
7:20 PM 39.2 °F 33.6 °F 35.6 °F 87% 29.68 in 4.3 mi West 8.1 mph - N/A Rain Light Rain Showers
7:50 PM 39.2 °F 33.0 °F 35.6 °F 87% 29.68 in 6.2 mi WSW 9.2 mph - N/A   Mostly Cloudy
8:20 PM 39.2 °F 32.0 °F 35.6 °F 87% 29.71 in 6.2 mi WSW 11.5 mph - N/A   Mostly Cloudy
8:50 PM 39.2 °F 33.6 °F 35.6 °F 87% 29.71 in 6.2 mi WSW 8.1 mph - N/A Rain Light Rain Showers
9:20 PM 39.2 °F 33.0 °F 35.6 °F 87% 29.71 in 6.2 mi WSW 9.2 mph - N/A Rain Light Rain Showers
9:50 PM 37.4 °F 29.3 °F 35.6 °F 93% 29.74 in 6.2 mi WSW 12.7 mph - N/A   Mostly Cloudy
10:20 PM 39.2 °F 30.8 °F 35.6 °F 87% 29.74 in 6.2 mi WSW 15.0 mph - N/A   Mostly Cloudy
10:50 PM 39.2 °F 30.8 °F 35.6 °F 87% 29.71 in 6.2 mi WSW 15.0 mph - N/A   Partly Cloudy
11:20 PM 41.0 °F 34.7 °F 35.6 °F 81% 29.71 in 6.2 mi WSW 10.4 mph - N/A   Partly Cloudy
11:50 PM 39.2 °F 33.0 °F 33.8 °F 81% 29.71 in 6.2 mi SW 9.2 mph - N/A   Scattered Clouds